Weather History for Port Angeles, WA

Change the Weather History Date:

Sunday, August 4, 2013

  Actual Average Record
Temperature  
Mean Temperature 61 °F -  
Max Temperature 72 °F 69 °F 84 °F (2012)
Min Temperature 51 °F 52 °F 44 °F (1950)
Degree Days  
Heating Degree Days 4    
Growing Degree Days 11 (Base 50)    
Moisture  
Dew Point 53 °F    
Average Humidity 88    
Maximum Humidity 100    
Minimum Humidity 59    
Precipitation  
Precipitation 0.00 in - - ()
Sea Level Pressure  
Sea Level Pressure 30.06 in    
Wind  
Wind Speed 4 mph (WNW)    
Max Wind Speed 10 mph    
Max Gust Speed -    
Visibility 5 miles    
Events Fog    
Averages and records for this station are not official NWS values.
T = Trace of Precipitation, MM = Missing Value Source: NWS Daily Summary

Daily Weather History Graph

Daily Weather History Graph

Search for Another Location

Airport:

Trip Planner

Search our weather history database for the weather conditions in past years. The results will help you decide how hot, cold, wet, or windy it might be!

Date:

Astronomy

Aug. 04, 2013 Rise Set
Actual Time 5:54 AM PDT 8:45 PM PDT
Civil Twilight 5:18 AM PDT 9:20 PM PDT
Nautical Twilight 4:31 AM PDT 10:06 PM PDT
Astronomical Twilight 3:36 AM PDT 11:01 PM PDT
Moon 3:58 AM PDT (8/4) 7:11 PM PDT (8/4)
Length of Visible Light 16h 02m
Length of Day
14h 50m
Waning Crescent, 4% of the Moon is Illuminated
Aug 4
Waning Crescent
Aug 6
New
Aug 14
First Quarter
Aug 20
Full
Aug 28
Last Quarter

Hourly Weather History & Observations

Time (PDT) Temp. Dew Point Humidity Pressure Visibility Wind Dir Wind Speed Gust Speed Precip Events Conditions
12:53 AM 54.0 °F 54.0 °F 100% 30.08 in 4.0 mi WSW 5.8 mph - N/A   Overcast
1:24 AM 54.0 °F 52.0 °F 93% 30.08 in 1.8 mi NW 4.6 mph - N/A   Overcast
1:32 AM 53.1 °F 52.0 °F 96% 30.07 in 0.8 mi West 4.6 mph - N/A   Mist
1:40 AM 53.1 °F 52.0 °F 96% 30.07 in 0.5 mi WNW 3.5 mph - N/A Fog Fog
1:53 AM 52.0 °F 51.1 °F 97% 30.07 in 0.2 mi NW 4.6 mph - N/A Fog Fog
2:04 AM 53.1 °F 52.0 °F 96% 30.07 in 0.2 mi NW 3.5 mph - N/A Fog Fog
2:38 AM 52.0 °F 52.0 °F 100% 30.06 in 1.0 mi WNW 4.6 mph - N/A   Mist
2:42 AM 52.0 °F 52.0 °F 100% 30.06 in 3.0 mi WNW 4.6 mph - N/A   Overcast
2:50 AM 51.8 °F 51.8 °F 100% 30.06 in 1.8 mi West 6.9 mph - N/A   Overcast
2:53 AM 53.1 °F 51.1 °F 93% 30.06 in 1.2 mi WNW 5.8 mph - N/A   Overcast
3:02 AM 53.1 °F 52.0 °F 96% 30.06 in 3.0 mi WNW 5.8 mph - N/A   Mostly Cloudy
3:11 AM 52.0 °F 51.1 °F 97% 30.07 in 10.0 mi WNW 3.5 mph - N/A   Scattered Clouds
3:49 AM 53.6 °F 51.8 °F 94% 30.07 in 10.0 mi Calm Calm - N/A   Mostly Cloudy
3:53 AM 53.1 °F 52.0 °F 96% 30.07 in 10.0 mi Calm Calm - N/A   Mostly Cloudy
4:30 AM 53.1 °F 51.1 °F 93% 30.07 in 1.2 mi WNW 4.6 mph - N/A   Overcast
4:38 AM 53.1 °F 52.0 °F 96% 30.07 in 0.5 mi West 4.6 mph - N/A Fog Fog
4:45 AM 53.1 °F 52.0 °F 96% 30.07 in 2.0 mi West 6.9 mph - N/A   Overcast
4:53 AM 53.1 °F 52.0 °F 96% 30.07 in 1.0 mi WNW 8.1 mph - N/A   Mist
5:13 AM 53.1 °F 52.0 °F 96% 30.07 in 1.0 mi West 5.8 mph - N/A   Overcast
5:29 AM 53.1 °F 52.0 °F 96% 30.07 in 1.0 mi West 3.5 mph - N/A   Mist
5:48 AM 53.6 °F 51.8 °F 94% 30.07 in 1.5 mi West 3.5 mph - N/A   Overcast
5:53 AM 52.0 °F 51.1 °F 97% 30.07 in 1.5 mi Calm Calm - N/A   Overcast
6:00 AM 52.0 °F 52.0 °F 100% 30.07 in 0.2 mi Calm Calm - N/A Fog Fog
6:12 AM 53.1 °F 52.0 °F 96% 30.07 in 0.2 mi West 3.5 mph - N/A Fog Fog
6:53 AM 53.1 °F 52.0 °F 96% 30.08 in 0.2 mi WNW 3.5 mph - N/A Fog Fog
7:20 AM 53.1 °F 53.1 °F 100% 30.08 in 0.2 mi Calm Calm - N/A Fog Fog
7:30 AM 54.0 °F 53.1 °F 97% 30.08 in 1.0 mi Calm Calm - N/A   Overcast
7:43 AM 54.0 °F 53.1 °F 97% 30.08 in 3.0 mi Calm Calm - N/A   Overcast
7:53 AM 55.0 °F 54.0 °F 96% 30.09 in 5.0 mi Calm Calm - N/A   Overcast
8:34 AM 55.9 °F 54.0 °F 93% 30.08 in 10.0 mi NNW 3.5 mph - N/A   Scattered Clouds
8:53 AM 57.9 °F 54.0 °F 87% 30.08 in 10.0 mi Calm Calm - N/A   Clear
9:53 AM 60.1 °F 53.1 °F 78% 30.08 in 10.0 mi North 3.5 mph - N/A   Clear
10:53 AM 61.0 °F 53.1 °F 75% 30.08 in 10.0 mi North 5.8 mph - N/A   Clear
11:53 AM 66.9 °F 55.0 °F 66% 30.07 in 10.0 mi NE 3.5 mph - N/A   Clear
12:53 PM 69.1 °F 57.9 °F 68% 30.07 in 10.0 mi Variable 5.8 mph - N/A   Clear
1:53 PM 71.1 °F 55.9 °F 59% 30.05 in 10.0 mi ENE 5.8 mph - N/A   Clear
2:53 PM 66.9 °F 54.0 °F 63% 30.04 in 10.0 mi NNE 5.8 mph - N/A   Clear
3:53 PM 68.0 °F 54.0 °F 61% 30.02 in 10.0 mi North 5.8 mph - N/A   Clear
4:53 PM 66.9 °F 54.0 °F 63% 30.01 in 10.0 mi WNW 4.6 mph - N/A   Clear
5:53 PM 64.9 °F 55.0 °F 70% 30.00 in 10.0 mi WNW 8.1 mph - N/A   Clear
6:53 PM 66.0 °F 55.9 °F 70% 29.99 in 10.0 mi NW 4.6 mph - N/A   Clear
7:53 PM 66.0 °F 57.0 °F 73% 29.99 in 10.0 mi West 9.2 mph - N/A   Clear
8:53 PM 62.1 °F 55.0 °F 78% 29.99 in 10.0 mi WNW 10.4 mph - N/A   Clear
9:53 PM 59.0 °F 54.0 °F 83% 30.00 in 10.0 mi WNW 6.9 mph - N/A   Clear
10:53 PM 57.0 °F 53.1 °F 87% 30.01 in 10.0 mi West 5.8 mph - N/A   Clear
11:53 PM 54.0 °F 52.0 °F 93% 30.00 in 10.0 mi WNW 4.6 mph - N/A   Clear